Time,TemperatureF,DewpointF,PressureIn,WindDirection,WindDirectionDegrees,WindSpeedMPH,WindSpeedGustMPH,Humidity,HourlyPrecipIn,Conditions,Clouds,dailyrainin,SoftwareType,DateUTC
2013-01-25 00:01:00,15.4,-0.3,30.32,WNW,292,4.6,4.6,49,0.00,CLR,,0.00,WeatherDisplay:10.37,2013-01-25 05:01:00,
2013-01-25 00:02:00,15.4,-0.3,30.32,SW,225,5.8,5.8,49,0.00,CLR,,0.00,WeatherDisplay:10.37,2013-01-25 05:02:00,
2013-01-25 00:07:00,15.3,-0.5,30.33,WSW,248,3.5,3.5,49,0.00,CLR,,0.00,WeatherDisplay:10.37,2013-01-25 05:07:00,
2013-01-25 00:12:00,15.1,-0.7,30.33,NW,315,4.6,4.6,49,0.00,CLR,,0.00,WeatherDisplay:10.37,2013-01-25 05:12:00,
2013-01-25 00:17:00,15.1,-0.7,30.33,WSW,248,2.3,2.3,49,0.00,CLR,,0.00,WeatherDisplay:10.37,2013-01-25 05:17:00,
2013-01-25 00:22:00,15.1,-0.7,30.33,West,270,2.4,2.4,49,0.00,CLR,,0.00,WeatherDisplay:10.37,2013-01-25 05:22:00,
2013-01-25 00:27:00,14.9,-0.4,30.33,NW,315,2.3,2.3,50,0.00,CLR,,0.00,WeatherDisplay:10.37,2013-01-25 05:27:00,
2013-01-25 00:32:00,14.9,-0.4,30.33,NW,315,3.5,3.5,50,0.00,CLR,,0.00,WeatherDisplay:10.37,2013-01-25 05:32:00,
2013-01-25 00:37:00,14.7,-0.6,30.33,WNW,292,3.8,3.8,50,0.00,CLR,,0.00,WeatherDisplay:10.37,2013-01-25 05:37:00,
2013-01-25 00:42:00,14.7,-0.6,30.33,WSW,248,4.6,4.6,50,0.00,CLR,,0.00,WeatherDisplay:10.37,2013-01-25 05:42:00,
2013-01-25 00:47:00,14.7,-0.2,30.33,WNW,292,2.3,2.3,51,0.00,CLR,,0.00,WeatherDisplay:10.37,2013-01-25 05:47:00,
2013-01-25 00:52:00,14.5,-0.8,30.33,West,270,2.3,2.3,50,0.00,CLR,,0.00,WeatherDisplay:10.37,2013-01-25 05:52:00,
2013-01-25 00:58:00,14.5,-0.8,30.33,SW,225,3.5,4.0,50,0.00,CLR,,0.00,WeatherDisplay:10.37,2013-01-25 05:58:00,
2013-01-25 01:03:00,14.5,-0.8,30.33,West,270,2.3,2.3,50,0.00,CLR,,0.00,WeatherDisplay:10.37,2013-01-25 06:03:00,
2013-01-25 01:08:00,14.4,-0.9,30.33,WNW,292,1.4,1.4,50,0.00,CLR,,0.00,WeatherDisplay:10.37,2013-01-25 06:08:00,
2013-01-25 01:13:00,14.2,-1.1,30.34,WNW,292,0.0,0.9,50,0.00,CLR,,0.00,WeatherDisplay:10.37,2013-01-25 06:13:00,
2013-01-25 01:18:00,14.0,-0.8,30.34,West,270,2.3,2.3,51,0.00,CLR,,0.00,WeatherDisplay:10.37,2013-01-25 06:18:00,
2013-01-25 01:23:00,14.0,-0.8,30.34,NE,45,2.3,2.3,51,0.00,CLR,,0.00,WeatherDisplay:10.37,2013-01-25 06:23:00,
2013-01-25 01:28:00,14.0,-0.8,30.34,North,0,1.1,1.1,51,0.00,CLR,,0.00,WeatherDisplay:10.37,2013-01-25 06:28:00,
2013-01-25 01:33:00,14.0,-0.8,30.34,NW,315,3.5,3.5,51,0.00,CLR,,0.00,WeatherDisplay:10.37,2013-01-25 06:33:00,
2013-01-25 01:38:00,14.0,-0.8,30.33,West,270,2.3,2.3,51,0.00,CLR,,0.00,WeatherDisplay:10.37,2013-01-25 06:38:00,
2013-01-25 01:43:00,14.0,-0.4,30.34,SW,225,2.6,2.6,52,0.00,CLR,,0.00,WeatherDisplay:10.37,2013-01-25 06:43:00,
2013-01-25 01:48:00,14.0,-0.4,30.34,WSW,248,2.3,2.6,52,0.00,CLR,,0.00,WeatherDisplay:10.37,2013-01-25 06:48:00,
2013-01-25 01:53:00,14.0,-0.4,30.34,SW,225,0.0,3.6,52,0.00,CLR,,0.00,WeatherDisplay:10.37,2013-01-25 06:53:00,
2013-01-25 01:58:00,14.0,-0.4,30.34,WNW,292,2.6,2.6,52,0.00,CLR,,0.00,WeatherDisplay:10.37,2013-01-25 06:58:00,
2013-01-25 02:03:00,13.8,-0.6,30.34,SSW,202,1.1,1.1,52,0.00,CLR,,0.00,WeatherDisplay:10.37,2013-01-25 07:03:00,
2013-01-25 02:08:00,13.8,-0.2,30.34,NW,315,2.3,2.3,53,0.00,CLR,,0.00,WeatherDisplay:10.37,2013-01-25 07:08:00,
2013-01-25 02:13:00,13.8,-0.2,30.34,South,180,2.3,2.3,53,0.00,CLR,,0.00,WeatherDisplay:10.37,2013-01-25 07:13:00,
2013-01-25 02:18:00,13.8,-0.2,30.33,NW,315,3.1,3.1,53,0.00,CLR,,0.00,WeatherDisplay:10.37,2013-01-25 07:18:00,
2013-01-25 02:23:00,13.8,0.2,30.34,SW,225,1.1,1.1,54,0.00,CLR,,0.00,WeatherDisplay:10.37,2013-01-25 07:23:00,
2013-01-25 02:28:00,13.6,-0.3,30.34,SW,225,2.3,2.3,53,0.00,CLR,,0.00,WeatherDisplay:10.37,2013-01-25 07:28:00,
2013-01-25 02:33:00,13.6,-0.3,30.34,SSE,158,2.3,2.3,53,0.00,CLR,,0.00,WeatherDisplay:10.37,2013-01-25 07:33:00,
2013-01-25 02:38:00,13.5,-0.1,30.34,SSW,202,2.4,2.4,54,0.00,CLR,,0.00,WeatherDisplay:10.37,2013-01-25 07:38:00,
2013-01-25 02:43:00,13.5,-0.1,30.34,South,180,1.1,1.1,54,0.00,CLR,,0.00,WeatherDisplay:10.37,2013-01-25 07:43:00,
2013-01-25 02:48:00,13.3,-0.3,30.34,SSW,202,0.0,0.0,54,0.00,CLR,,0.00,WeatherDisplay:10.37,2013-01-25 07:48:00,
2013-01-25 02:53:00,13.3,-0.3,30.34,West,270,1.8,1.8,54,0.00,CLR,,0.00,WeatherDisplay:10.37,2013-01-25 07:53:00,
2013-01-25 02:58:00,13.3,-0.3,30.33,SW,225,1.1,1.1,54,0.00,CLR,,0.00,WeatherDisplay:10.37,2013-01-25 07:58:00,
2013-01-25 03:03:00,13.1,-0.5,30.33,WSW,248,1.1,1.1,54,0.00,CLR,,0.00,WeatherDisplay:10.37,2013-01-25 08:03:00,
2013-01-25 03:08:00,13.1,-0.5,30.33,West,270,1.1,1.1,54,0.00,CLR,,0.00,WeatherDisplay:10.37,2013-01-25 08:08:00,
2013-01-25 03:13:00,13.3,0.1,30.33,West,270,1.1,1.1,55,0.00,CLR,,0.00,WeatherDisplay:10.37,2013-01-25 08:13:00,
2013-01-25 03:18:00,13.3,0.1,30.33,West,270,1.1,1.1,55,0.00,CLR,,0.00,WeatherDisplay:10.37,2013-01-25 08:18:00,
2013-01-25 03:23:00,13.3,0.5,30.33,West,270,2.3,2.3,56,0.00,CLR,,0.00,WeatherDisplay:10.37,2013-01-25 08:23:00,
2013-01-25 03:28:00,13.5,0.7,30.33,WSW,248,3.6,3.6,56,0.00,CLR,,0.00,WeatherDisplay:10.37,2013-01-25 08:28:00,
2013-01-25 03:33:00,13.6,0.8,30.33,WNW,292,2.3,2.3,56,0.00,CLR,,0.00,WeatherDisplay:10.37,2013-01-25 08:33:00,
2013-01-25 03:38:00,13.6,0.8,30.34,WNW,292,1.1,1.1,56,0.00,CLR,,0.00,WeatherDisplay:10.37,2013-01-25 08:38:00,
2013-01-25 03:43:00,13.6,0.4,30.33,SW,225,0.5,0.5,55,0.00,CLR,,0.00,WeatherDisplay:10.37,2013-01-25 08:43:00,
2013-01-25 03:48:00,13.3,0.1,30.33,SE,135,1.1,1.1,55,0.00,CLR,,0.00,WeatherDisplay:10.37,2013-01-25 08:48:00,
2013-01-25 03:53:00,13.3,0.5,30.34,South,180,1.8,1.8,56,0.00,CLR,,0.00,WeatherDisplay:10.37,2013-01-25 08:53:00,
2013-01-25 03:58:00,13.1,0.3,30.34,SW,225,0.0,0.0,56,0.00,CLR,,0.00,WeatherDisplay:10.37,2013-01-25 08:58:00,
2013-01-25 04:03:00,12.9,0.2,30.34,West,270,1.1,1.1,56,0.00,CLR,,0.00,WeatherDisplay:10.37,2013-01-25 09:03:00,
2013-01-25 04:08:00,12.9,0.2,30.33,WSW,248,1.1,1.1,56,0.00,CLR,,0.00,WeatherDisplay:10.37,2013-01-25 09:08:00,
2013-01-25 04:13:00,12.7,0.0,30.34,West,270,1.1,1.1,56,0.00,CLR,,0.00,WeatherDisplay:10.37,2013-01-25 09:13:00,
2013-01-25 04:18:00,12.9,0.2,30.33,WSW,248,0.0,0.0,56,0.00,CLR,,0.00,WeatherDisplay:10.37,2013-01-25 09:18:00,
2013-01-25 04:23:00,12.7,0.0,30.34,West,270,0.5,0.5,56,0.00,CLR,,0.00,WeatherDisplay:10.37,2013-01-25 09:23:00,
2013-01-25 04:28:00,12.6,-0.2,30.34,WSW,248,1.1,1.1,56,0.00,CLR,,0.00,WeatherDisplay:10.37,2013-01-25 09:28:00,
2013-01-25 04:33:00,12.6,0.2,30.34,NW,315,0.0,0.5,57,0.00,CLR,,0.00,WeatherDisplay:10.37,2013-01-25 09:33:00,
2013-01-25 04:38:00,12.6,0.2,30.34,West,270,0.5,0.5,57,0.00,CLR,,0.00,WeatherDisplay:10.37,2013-01-25 09:38:00,
2013-01-25 04:43:00,12.7,0.4,30.34,SSW,202,1.1,1.1,57,0.00,CLR,,0.00,WeatherDisplay:10.37,2013-01-25 09:43:00,
2013-01-25 04:48:00,12.7,0.4,30.34,SE,135,0.0,0.0,57,0.00,CLR,,0.00,WeatherDisplay:10.37,2013-01-25 09:48:00,
2013-01-25 04:53:00,12.6,0.2,30.34,SW,225,0.0,0.0,57,0.00,CLR,,0.00,WeatherDisplay:10.37,2013-01-25 09:53:00,
2013-01-25 04:58:00,12.4,0.0,30.34,South,180,0.0,0.0,57,0.00,CLR,,0.00,WeatherDisplay:10.37,2013-01-25 09:58:00,
2013-01-25 05:03:00,12.2,-0.1,30.34,WSW,248,1.1,1.1,57,0.00,CLR,,0.00,WeatherDisplay:10.37,2013-01-25 10:03:00,
2013-01-25 05:08:00,12.2,0.2,30.34,SW,225,0.0,0.0,58,0.00,CLR,,0.00,WeatherDisplay:10.37,2013-01-25 10:08:00,
2013-01-25 05:13:00,12.2,0.2,30.34,WSW,248,0.0,0.0,58,0.00,CLR,,0.00,WeatherDisplay:10.37,2013-01-25 10:13:00,
2013-01-25 05:18:00,12.2,0.2,30.34,SW,225,0.0,0.0,58,0.00,CLR,,0.00,WeatherDisplay:10.37,2013-01-25 10:18:00,
2013-01-25 05:23:00,12.0,0.1,30.34,SW,225,0.5,0.5,58,0.00,CLR,,0.00,WeatherDisplay:10.37,2013-01-25 10:23:00,
2013-01-25 05:28:00,12.2,0.2,30.34,WSW,248,0.0,0.0,58,0.00,CLR,,0.00,WeatherDisplay:10.37,2013-01-25 10:28:00,
2013-01-25 05:33:00,12.2,0.2,30.34,West,270,1.1,1.1,58,0.00,CLR,,0.00,WeatherDisplay:10.37,2013-01-25 10:33:00,
2013-01-25 05:38:00,12.6,0.9,30.34,West,270,1.1,1.1,59,0.00,CLR,,0.00,WeatherDisplay:10.37,2013-01-25 10:38:00,
2013-01-25 05:43:00,12.6,0.6,30.34,WSW,248,0.5,0.5,58,0.00,CLR,,0.00,WeatherDisplay:10.37,2013-01-25 10:43:00,
2013-01-25 05:48:00,12.7,0.7,30.34,SSW,202,1.1,1.1,58,0.00,CLR,,0.00,WeatherDisplay:10.37,2013-01-25 10:48:00,
2013-01-25 05:53:00,12.7,0.7,30.34,SSW,202,0.5,0.5,58,0.00,CLR,,0.00,WeatherDisplay:10.37,2013-01-25 10:53:00,
2013-01-25 05:58:00,12.9,1.3,30.34,WSW,248,1.1,1.1,59,0.00,CLR,,0.00,WeatherDisplay:10.37,2013-01-25 10:58:00,
2013-01-25 06:03:00,12.9,1.3,30.34,West,270,1.1,1.1,59,0.00,CLR,,0.00,WeatherDisplay:10.37,2013-01-25 11:03:00,
2013-01-25 06:08:00,13.1,1.8,30.34,SW,225,1.1,1.1,60,0.00,CLR,,0.00,WeatherDisplay:10.37,2013-01-25 11:08:00,
2013-01-25 06:13:00,13.1,1.4,30.34,SW,225,1.8,1.8,59,0.00,CLR,,0.00,WeatherDisplay:10.37,2013-01-25 11:13:00,
2013-01-25 06:18:00,13.1,1.4,30.34,SW,225,1.1,1.1,59,0.00,CLR,,0.00,WeatherDisplay:10.37,2013-01-25 11:18:00,
2013-01-25 06:23:00,13.1,1.8,30.34,SW,225,2.3,2.3,60,0.00,CLR,,0.00,WeatherDisplay:10.37,2013-01-25 11:23:00,
2013-01-25 06:28:00,13.3,2.0,30.34,South,180,3.3,3.3,60,0.00,CLR,,0.00,WeatherDisplay:10.37,2013-01-25 11:28:00,
2013-01-25 06:33:00,13.3,1.6,30.34,SW,225,2.3,2.3,59,0.00,CLR,,0.00,WeatherDisplay:10.37,2013-01-25 11:33:00,
2013-01-25 06:38:00,13.1,1.4,30.34,WSW,248,0.0,0.5,59,0.00,CLR,,0.00,WeatherDisplay:10.37,2013-01-25 11:38:00,
2013-01-25 06:43:00,13.1,1.8,30.34,WSW,248,1.1,1.1,60,0.00,CLR,,0.00,WeatherDisplay:10.37,2013-01-25 11:43:00,
2013-01-25 06:48:00,13.1,1.8,30.34,West,270,1.1,1.1,60,0.00,CLR,,0.00,WeatherDisplay:10.37,2013-01-25 11:48:00,
2013-01-25 06:53:00,13.3,2.0,30.34,WSW,248,2.3,2.3,60,0.00,CLR,,0.00,WeatherDisplay:10.37,2013-01-25 11:53:00,
2013-01-25 06:58:00,13.3,2.0,30.34,SW,225,1.1,1.1,60,0.00,CLR,,0.00,WeatherDisplay:10.37,2013-01-25 11:58:00,
2013-01-25 07:03:00,13.3,2.0,30.34,SW,225,1.1,1.1,60,0.00,CLR,,0.00,WeatherDisplay:10.37,2013-01-25 12:03:00,
2013-01-25 07:08:00,13.5,2.1,30.33,West,270,1.1,1.1,60,0.00,CLR,,0.00,WeatherDisplay:10.37,2013-01-25 12:08:00,
2013-01-25 07:13:00,13.5,1.8,30.33,NE,45,1.1,1.1,59,0.00,CLR,,0.00,WeatherDisplay:10.37,2013-01-25 12:13:00,
2013-01-25 07:18:00,13.3,1.6,30.34,SW,225,1.1,1.1,59,0.00,CLR,,0.00,WeatherDisplay:10.37,2013-01-25 12:18:00,
2013-01-25 07:23:00,13.5,1.8,30.34,SW,225,1.1,1.1,59,0.00,CLR,,0.00,WeatherDisplay:10.37,2013-01-25 12:23:00,
2013-01-25 07:28:00,13.6,1.9,30.34,SW,225,0.9,0.9,59,0.00,CLR,,0.00,WeatherDisplay:10.37,2013-01-25 12:28:00,
2013-01-25 07:33:00,13.6,1.9,30.34,West,270,0.0,0.9,59,0.00,CLR,,0.00,WeatherDisplay:10.37,2013-01-25 12:33:00,
2013-01-25 07:38:00,13.8,2.1,30.33,WSW,248,1.1,1.1,59,0.00,CLR,,0.00,WeatherDisplay:10.37,2013-01-25 12:38:00,
2013-01-25 07:43:00,13.8,2.1,30.33,SW,225,0.2,0.2,59,0.00,CLR,,0.00,WeatherDisplay:10.37,2013-01-25 12:43:00,
2013-01-25 07:48:00,14.0,2.7,30.33,NW,315,1.1,1.1,60,0.00,CLR,,0.00,WeatherDisplay:10.37,2013-01-25 12:48:00,
2013-01-25 07:53:00,14.0,2.7,30.33,WNW,292,1.1,1.1,60,0.00,CLR,,0.00,WeatherDisplay:10.37,2013-01-25 12:53:00,
2013-01-25 07:58:00,14.2,2.5,30.33,WSW,248,2.3,2.3,59,0.00,CLR,,0.00,WeatherDisplay:10.37,2013-01-25 12:58:00,
2013-01-25 08:03:00,14.7,3.3,30.33,NW,315,2.3,2.3,60,0.00,CLR,,0.00,WeatherDisplay:10.37,2013-01-25 13:03:00,
2013-01-25 08:08:00,14.7,3.0,30.32,West,270,0.7,0.7,59,0.00,CLR,,0.00,WeatherDisplay:10.37,2013-01-25 13:08:00,
2013-01-25 08:13:00,14.9,3.1,30.32,West,270,1.1,1.1,59,0.00,CLR,,0.00,WeatherDisplay:10.37,2013-01-25 13:13:00,
2013-01-25 08:18:00,15.1,3.3,30.32,SW,225,1.1,0.0,59,0.00,CLR,,0.00,WeatherDisplay:10.37,2013-01-25 13:18:00,
2013-01-25 08:23:00,15.1,3.7,30.32,West,270,1.1,1.1,60,0.00,CLR,,0.00,WeatherDisplay:10.37,2013-01-25 13:23:00,
2013-01-25 08:28:00,15.4,4.0,30.32,SW,225,0.0,0.5,60,0.00,CLR,,0.00,WeatherDisplay:10.37,2013-01-25 13:28:00,
2013-01-25 08:33:00,15.6,4.2,30.32,NNE,22,2.3,2.3,60,0.00,CLR,,0.00,WeatherDisplay:10.37,2013-01-25 13:33:00,
2013-01-25 08:38:00,15.8,4.0,30.32,WSW,248,1.8,1.8,59,0.00,CLR,,0.00,WeatherDisplay:10.37,2013-01-25 13:38:00,
2013-01-25 08:43:00,16.0,4.2,30.32,NNW,338,1.1,1.1,59,0.00,CLR,,0.00,WeatherDisplay:10.37,2013-01-25 13:43:00,
2013-01-25 08:48:00,16.0,4.2,30.33,NW,315,1.1,1.1,59,0.00,CLR,,0.00,WeatherDisplay:10.37,2013-01-25 13:48:00,
2013-01-25 08:53:00,16.2,4.3,30.33,NE,45,1.1,1.1,59,0.00,CLR,,0.00,WeatherDisplay:10.37,2013-01-25 13:53:00,
2013-01-25 08:58:00,16.2,4.0,30.33,NNW,338,1.1,1.1,58,0.00,CLR,,0.00,WeatherDisplay:10.37,2013-01-25 13:58:00,
2013-01-25 09:03:00,16.2,4.0,30.34,NNE,22,1.1,1.1,58,0.00,CLR,,0.00,WeatherDisplay:10.37,2013-01-25 14:03:00,
2013-01-25 09:08:00,16.3,3.7,30.34,North,0,1.1,1.1,57,0.00,CLR,,0.00,WeatherDisplay:10.37,2013-01-25 14:08:00,
2013-01-25 09:13:00,16.5,3.9,30.34,SW,225,1.1,1.1,57,0.00,CLR,,0.00,WeatherDisplay:10.37,2013-01-25 14:13:00,
2013-01-25 09:18:00,16.9,4.3,30.33,North,0,2.3,2.3,57,0.00,CLR,,0.00,WeatherDisplay:10.37,2013-01-25 14:18:00,
2013-01-25 09:23:00,16.9,4.3,30.33,SE,135,1.1,0.0,57,0.00,CLR,,0.00,WeatherDisplay:10.37,2013-01-25 14:23:00,
2013-01-25 09:28:00,17.2,4.6,30.34,NNW,338,1.1,1.1,57,0.00,CLR,,0.00,WeatherDisplay:10.37,2013-01-25 14:28:00,
2013-01-25 09:33:00,17.2,4.2,30.33,ESE,112,1.1,1.1,56,0.00,CLR,,0.00,WeatherDisplay:10.37,2013-01-25 14:33:00,
2013-01-25 09:38:00,17.4,4.4,30.33,West,270,1.1,1.1,56,0.00,CLR,,0.00,WeatherDisplay:10.37,2013-01-25 14:38:00,
2013-01-25 09:43:00,17.6,4.5,30.33,WNW,292,1.1,1.1,56,0.00,CLR,,0.00,WeatherDisplay:10.37,2013-01-25 14:43:00,
2013-01-25 09:48:00,18.0,4.9,30.34,West,270,2.3,2.3,56,0.00,CLR,,0.00,WeatherDisplay:10.37,2013-01-25 14:48:00,
2013-01-25 09:53:00,18.3,5.2,30.34,WSW,248,1.1,1.1,56,0.00,CLR,,0.00,WeatherDisplay:10.37,2013-01-25 14:53:00,
2013-01-25 09:58:00,18.5,5.0,30.34,West,270,1.1,1.6,55,0.00,CLR,,0.00,WeatherDisplay:10.37,2013-01-25 14:58:00,
2013-01-25 10:03:00,18.7,5.2,30.35,SW,225,3.5,3.5,55,0.00,CLR,,0.00,WeatherDisplay:10.37,2013-01-25 15:03:00,
2013-01-25 10:08:00,18.7,4.8,30.35,West,270,1.1,1.1,54,0.00,CLR,,0.00,WeatherDisplay:10.37,2013-01-25 15:08:00,
2013-01-25 10:13:00,19.0,5.1,30.35,WSW,248,1.1,1.1,54,0.00,CLR,,0.00,WeatherDisplay:10.37,2013-01-25 15:13:00,
2013-01-25 10:18:00,19.4,5.8,30.34,North,0,1.1,1.1,55,0.00,CLR,,0.00,WeatherDisplay:10.37,2013-01-25 15:18:00,
2013-01-25 10:23:00,19.8,6.2,30.33,NW,315,3.5,3.5,55,0.00,CLR,,0.00,WeatherDisplay:10.37,2013-01-25 15:23:00,
2013-01-25 10:28:00,19.4,5.0,30.33,NNE,22,4.6,4.6,53,0.00,CLR,,0.00,WeatherDisplay:10.37,2013-01-25 15:28:00,
2013-01-25 10:33:00,19.4,5.4,30.33,NE,45,1.1,1.1,54,0.00,CLR,,0.00,WeatherDisplay:10.37,2013-01-25 15:33:00,
2013-01-25 10:38:00,19.4,4.6,30.33,West,270,1.1,0.0,52,0.00,CLR,,0.00,WeatherDisplay:10.37,2013-01-25 15:38:00,
2013-01-25 10:43:00,19.8,5.4,30.32,SW,225,1.1,1.1,53,0.00,CLR,,0.00,WeatherDisplay:10.37,2013-01-25 15:43:00,
2013-01-25 10:48:00,19.9,5.9,30.32,SW,225,2.3,2.3,54,0.00,CLR,,0.00,WeatherDisplay:10.37,2013-01-25 15:48:00,
2013-01-25 10:53:00,20.3,5.9,30.32,WSW,248,1.1,1.1,53,0.00,CLR,,0.00,WeatherDisplay:10.37,2013-01-25 15:53:00,
2013-01-25 10:58:00,20.7,6.2,30.31,SW,225,2.3,2.3,53,0.00,CLR,,0.00,WeatherDisplay:10.37,2013-01-25 15:58:00,
2013-01-25 11:03:00,21.0,6.5,30.31,WSW,248,1.1,1.1,53,0.00,CLR,,0.00,WeatherDisplay:10.37,2013-01-25 16:03:00,
2013-01-25 11:08:00,21.2,6.3,30.31,SW,225,1.1,1.1,52,0.00,CLR,,0.00,WeatherDisplay:10.37,2013-01-25 16:08:00,
2013-01-25 11:13:00,21.6,6.6,30.30,NNW,338,1.1,1.1,52,0.00,CLR,,0.00,WeatherDisplay:10.37,2013-01-25 16:13:00,
2013-01-25 11:18:00,21.9,7.0,30.30,SW,225,1.4,1.4,52,0.00,CLR,,0.00,WeatherDisplay:10.37,2013-01-25 16:18:00,
2013-01-25 11:23:00,22.1,5.8,30.29,ESE,112,1.1,1.1,49,0.00,CLR,,0.00,WeatherDisplay:10.37,2013-01-25 16:23:00,
2013-01-25 11:28:00,21.7,5.9,30.28,NNW,338,2.3,2.3,50,0.00,CLR,,0.00,WeatherDisplay:10.37,2013-01-25 16:28:00,
2013-01-25 11:33:00,21.9,5.7,30.28,West,270,2.3,2.3,49,0.00,CLR,,0.00,WeatherDisplay:10.37,2013-01-25 16:33:00,
2013-01-25 11:38:00,21.9,6.1,30.27,SSW,202,2.3,2.3,50,0.00,CLR,,0.00,WeatherDisplay:10.37,2013-01-25 16:38:00,
2013-01-25 11:43:00,22.6,6.3,30.27,South,180,2.3,2.3,49,0.00,CLR,,0.00,WeatherDisplay:10.37,2013-01-25 16:43:00,
2013-01-25 11:48:00,23.0,6.7,30.26,West,270,2.3,0.0,49,0.00,CLR,,0.00,WeatherDisplay:10.37,2013-01-25 16:48:00,
2013-01-25 11:53:00,23.0,5.7,30.25,NE,45,2.3,2.3,47,0.00,CLR,,0.00,WeatherDisplay:10.37,2013-01-25 16:53:00,
2013-01-25 11:58:00,22.6,5.9,30.25,NNW,338,1.1,1.1,48,0.00,CLR,,0.00,WeatherDisplay:10.37,2013-01-25 16:58:00,
2013-01-25 12:03:00,23.0,6.2,30.25,NNW,338,1.1,1.1,48,0.00,CLR,,0.00,WeatherDisplay:10.37,2013-01-25 17:03:00,
2013-01-25 12:08:00,23.4,6.5,30.24,SSW,202,1.1,1.1,48,0.00,CLR,,0.00,WeatherDisplay:10.37,2013-01-25 17:08:00,
2013-01-25 12:13:00,23.7,6.9,30.24,WSW,248,1.1,0.0,48,0.00,CLR,,0.00,WeatherDisplay:10.37,2013-01-25 17:13:00,
2013-01-25 12:18:00,23.7,6.4,30.24,NW,315,1.1,1.1,47,0.00,CLR,,0.00,WeatherDisplay:10.37,2013-01-25 17:18:00,
2013-01-25 12:23:00,23.4,5.6,30.24,NNW,338,2.3,2.3,46,0.00,CLR,,0.00,WeatherDisplay:10.37,2013-01-25 17:23:00,
2013-01-25 12:28:00,23.4,5.6,30.23,SSW,202,1.1,1.1,46,0.00,CLR,,0.00,WeatherDisplay:10.37,2013-01-25 17:28:00,
2013-01-25 12:33:00,23.9,6.6,30.23,SSW,202,1.1,0.0,47,0.00,CLR,,0.00,WeatherDisplay:10.37,2013-01-25 17:33:00,
2013-01-25 12:38:00,24.4,7.1,30.23,South,180,2.3,2.3,47,0.00,CLR,,0.00,WeatherDisplay:10.37,2013-01-25 17:38:00,
2013-01-25 12:43:00,25.0,8.0,30.22,WSW,248,2.3,2.3,48,0.00,CLR,,0.00,WeatherDisplay:10.37,2013-01-25 17:43:00,
2013-01-25 12:48:00,24.3,5.4,30.22,SW,225,1.1,1.1,44,0.00,CLR,,0.00,WeatherDisplay:10.37,2013-01-25 17:48:00,
2013-01-25 12:53:00,24.4,7.1,30.22,WNW,292,1.1,1.1,47,0.00,CLR,,0.00,WeatherDisplay:10.37,2013-01-25 17:53:00,
2013-01-25 12:58:00,24.8,7.4,30.21,SE,135,1.1,1.1,47,0.00,CLR,,0.00,WeatherDisplay:10.37,2013-01-25 17:58:00,
2013-01-25 13:03:00,25.5,7.6,30.21,NW,315,2.3,2.3,46,0.00,CLR,,0.00,WeatherDisplay:10.37,2013-01-25 18:03:00,
2013-01-25 13:08:00,25.5,7.6,30.20,West,270,0.7,0.7,46,0.00,CLR,,0.00,WeatherDisplay:10.37,2013-01-25 18:08:00,
2013-01-25 13:13:00,25.5,7.6,30.20,South,180,2.4,2.4,46,0.00,CLR,,0.00,WeatherDisplay:10.37,2013-01-25 18:13:00,
2013-01-25 13:18:00,25.7,8.2,30.19,South,180,1.1,1.1,47,0.00,CLR,,0.00,WeatherDisplay:10.37,2013-01-25 18:18:00,
2013-01-25 13:23:00,25.5,7.1,30.19,WNW,292,1.1,1.1,45,0.00,CLR,,0.00,WeatherDisplay:10.37,2013-01-25 18:23:00,
2013-01-25 13:28:00,25.2,6.8,30.18,NNW,338,1.1,1.1,45,0.00,CLR,,0.00,WeatherDisplay:10.37,2013-01-25 18:28:00,
2013-01-25 13:33:00,25.3,6.9,30.18,WSW,248,1.1,1.1,45,0.00,CLR,,0.00,WeatherDisplay:10.37,2013-01-25 18:33:00,
2013-01-25 13:38:00,25.7,7.7,30.18,South,180,2.3,2.3,46,0.00,CLR,,0.00,WeatherDisplay:10.37,2013-01-25 18:38:00,
2013-01-25 13:43:00,26.1,8.1,30.18,SSW,202,0.7,0.7,46,0.00,CLR,,0.00,WeatherDisplay:10.37,2013-01-25 18:43:00,
2013-01-25 13:48:00,26.2,7.8,30.17,SSW,202,0.0,0.0,45,0.00,CLR,,0.00,WeatherDisplay:10.37,2013-01-25 18:48:00,
2013-01-25 13:53:00,26.4,8.4,30.17,SSW,202,1.1,2.4,46,0.00,CLR,,0.00,WeatherDisplay:10.37,2013-01-25 18:53:00,
2013-01-25 13:58:00,26.4,7.4,30.17,SW,225,1.1,1.1,44,0.00,CLR,,0.00,WeatherDisplay:10.37,2013-01-25 18:58:00,
2013-01-25 14:03:00,26.2,7.8,30.17,ESE,112,1.1,1.1,45,0.00,CLR,,0.00,WeatherDisplay:10.37,2013-01-25 19:03:00,
2013-01-25 14:08:00,26.2,7.8,30.17,NW,315,0.0,0.0,45,0.00,CLR,,0.00,WeatherDisplay:10.37,2013-01-25 19:08:00,
2013-01-25 14:13:00,26.1,7.6,30.17,West,270,1.1,1.1,45,0.00,CLR,,0.00,WeatherDisplay:10.37,2013-01-25 19:13:00,
2013-01-25 14:18:00,26.1,7.6,30.16,SSW,202,2.3,2.3,45,0.00,CLR,,0.00,WeatherDisplay:10.37,2013-01-25 19:18:00,
2013-01-25 14:23:00,26.1,7.1,30.16,SW,225,2.3,2.3,44,0.00,CLR,,0.00,WeatherDisplay:10.37,2013-01-25 19:23:00,
2013-01-25 14:28:00,25.7,6.8,30.16,WNW,292,1.1,1.1,44,0.00,CLR,,0.00,WeatherDisplay:10.37,2013-01-25 19:28:00,
2013-01-25 14:33:00,25.9,7.4,30.16,WNW,292,1.1,1.1,45,0.00,CLR,,0.00,WeatherDisplay:10.37,2013-01-25 19:33:00,
2013-01-25 14:38:00,26.2,7.8,30.16,SSE,158,2.3,2.3,45,0.00,CLR,,0.00,WeatherDisplay:10.37,2013-01-25 19:38:00,
2013-01-25 14:43:00,26.8,8.2,30.16,WSW,248,1.1,1.1,45,0.00,CLR,,0.00,WeatherDisplay:10.37,2013-01-25 19:43:00,
2013-01-25 14:48:00,27.0,7.9,30.15,WSW,248,2.3,2.3,44,0.00,CLR,,0.00,WeatherDisplay:10.37,2013-01-25 19:48:00,
2013-01-25 14:53:00,27.1,8.1,30.15,NW,315,1.1,1.1,44,0.00,CLR,,0.00,WeatherDisplay:10.37,2013-01-25 19:53:00,
2013-01-25 14:58:00,27.1,8.1,30.14,ESE,112,1.1,1.1,44,0.00,CLR,,0.00,WeatherDisplay:10.37,2013-01-25 19:58:00,
2013-01-25 15:03:00,27.1,8.1,30.14,SW,225,0.0,0.0,44,0.00,CLR,,0.00,WeatherDisplay:10.37,2013-01-25 20:03:00,
2013-01-25 15:08:00,27.5,8.4,30.13,SSW,202,2.3,2.3,44,0.00,CLR,,0.00,WeatherDisplay:10.37,2013-01-25 20:08:00,
2013-01-25 15:13:00,27.3,8.2,30.14,WSW,248,1.1,1.1,44,0.00,CLR,,0.00,WeatherDisplay:10.37,2013-01-25 20:13:00,
2013-01-25 15:18:00,27.0,7.9,30.13,South,180,0.5,0.5,44,0.00,CLR,,0.00,WeatherDisplay:10.37,2013-01-25 20:18:00,
2013-01-25 15:23:00,27.0,7.9,30.13,WSW,248,2.3,2.3,44,0.00,CLR,,0.00,WeatherDisplay:10.37,2013-01-25 20:23:00,
2013-01-25 15:28:00,27.0,7.4,30.14,South,180,2.9,2.9,43,0.00,CLR,,0.00,WeatherDisplay:10.37,2013-01-25 20:28:00,
2013-01-25 15:33:00,26.4,6.9,30.14,SW,225,3.5,3.5,43,0.00,CLR,,0.00,WeatherDisplay:10.37,2013-01-25 20:33:00,
2013-01-25 15:38:00,26.1,6.6,30.14,WSW,248,2.3,2.3,43,0.00,CLR,,0.00,WeatherDisplay:10.37,2013-01-25 20:38:00,
2013-01-25 15:43:00,25.9,6.9,30.13,WSW,248,1.1,1.1,44,0.00,CLR,,0.00,WeatherDisplay:10.37,2013-01-25 20:43:00,
2013-01-25 15:48:00,25.7,6.8,30.13,SSW,202,1.1,1.1,44,0.00,CLR,,0.00,WeatherDisplay:10.37,2013-01-25 20:48:00,
2013-01-25 15:53:00,25.7,6.8,30.13,SSW,202,1.1,1.1,44,0.00,CLR,,0.00,WeatherDisplay:10.37,2013-01-25 20:53:00,
2013-01-25 15:58:00,25.5,6.6,30.13,SSW,202,2.3,2.3,44,0.00,CLR,,0.00,WeatherDisplay:10.37,2013-01-25 20:58:00,
2013-01-25 16:03:00,25.3,6.4,30.13,SSW,202,2.3,2.3,44,0.00,CLR,,0.00,WeatherDisplay:10.37,2013-01-25 21:03:00,
2013-01-25 16:08:00,25.3,6.9,30.13,NW,315,2.3,2.3,45,0.00,CLR,,0.00,WeatherDisplay:10.37,2013-01-25 21:08:00,
2013-01-25 16:13:00,25.3,6.9,30.13,WSW,248,1.4,1.4,45,0.00,CLR,,0.00,WeatherDisplay:10.37,2013-01-25 21:13:00,
2013-01-25 16:18:00,25.2,6.8,30.12,SSE,158,3.5,3.5,45,0.00,CLR,,0.00,WeatherDisplay:10.37,2013-01-25 21:18:00,
2013-01-25 16:23:00,25.2,6.8,30.12,West,270,1.1,1.1,45,0.00,CLR,,0.00,WeatherDisplay:10.37,2013-01-25 21:23:00,
2013-01-25 16:28:00,25.2,6.8,30.12,SW,225,1.1,1.1,45,0.00,CLR,,0.00,WeatherDisplay:10.37,2013-01-25 21:28:00,
2013-01-25 16:33:00,25.0,7.1,30.12,WNW,292,0.2,0.2,46,0.00,CLR,,0.00,WeatherDisplay:10.37,2013-01-25 21:33:00,
2013-01-25 16:38:00,25.0,7.1,30.11,SW,225,1.1,1.1,46,0.00,CLR,,0.00,WeatherDisplay:10.37,2013-01-25 21:38:00,
2013-01-25 16:43:00,25.0,7.1,30.11,WSW,248,2.3,2.3,46,0.00,CLR,,0.00,WeatherDisplay:10.37,2013-01-25 21:43:00,
2013-01-25 16:48:00,24.8,6.9,30.11,SSE,158,1.1,1.1,46,0.00,CLR,,0.00,WeatherDisplay:10.37,2013-01-25 21:48:00,
2013-01-25 16:53:00,24.8,6.9,30.12,SW,225,1.1,1.1,46,0.00,CLR,,0.00,WeatherDisplay:10.37,2013-01-25 21:53:00,
2013-01-25 16:58:00,24.8,6.9,30.11,SSE,158,1.1,0.0,46,0.00,CLR,,0.00,WeatherDisplay:10.37,2013-01-25 21:58:00,
2013-01-25 17:03:00,24.8,6.9,30.11,West,270,2.4,2.4,46,0.00,CLR,,0.00,WeatherDisplay:10.37,2013-01-25 22:03:00,
2013-01-25 17:08:00,24.6,7.7,30.11,NW,315,2.3,3.3,48,0.00,CLR,,0.00,WeatherDisplay:10.37,2013-01-25 22:08:00,
2013-01-25 17:13:00,24.4,7.5,30.11,SSW,202,2.3,2.3,48,0.00,CLR,,0.00,WeatherDisplay:10.37,2013-01-25 22:13:00,
2013-01-25 17:18:00,24.1,8.5,30.11,ESE,112,3.5,3.5,51,0.00,CLR,,0.00,WeatherDisplay:10.37,2013-01-25 22:18:00,
2013-01-25 17:23:00,23.9,9.2,30.11,SSE,158,3.3,3.3,53,0.00,CLR,,0.00,WeatherDisplay:10.37,2013-01-25 22:23:00,
2013-01-25 17:28:00,23.4,11.5,30.11,SSW,202,2.3,2.3,60,0.00,CLR,,0.00,WeatherDisplay:10.37,2013-01-25 22:28:00,
2013-01-25 17:33:00,22.8,10.2,30.11,SW,225,3.5,3.5,58,0.00,CLR,,0.00,WeatherDisplay:10.37,2013-01-25 22:33:00,
2013-01-25 17:38:00,22.6,10.4,30.11,SSW,202,2.3,2.3,59,0.00,CLR,,0.00,WeatherDisplay:10.37,2013-01-25 22:38:00,
2013-01-25 17:43:00,22.5,11.0,30.10,West,270,3.1,3.1,61,0.00,CLR,,0.00,WeatherDisplay:10.37,2013-01-25 22:43:00,
2013-01-25 17:48:00,22.3,11.2,30.10,SW,225,2.3,2.3,62,0.00,CLR,,0.00,WeatherDisplay:10.37,2013-01-25 22:48:00,
2013-01-25 17:53:00,22.1,11.1,30.09,SSE,158,1.1,1.1,62,0.00,CLR,,0.00,WeatherDisplay:10.37,2013-01-25 22:53:00,
2013-01-25 17:58:00,21.9,10.9,30.08,SSW,202,2.3,0.0,62,0.00,CLR,,0.00,WeatherDisplay:10.37,2013-01-25 22:58:00,
2013-01-25 18:03:00,21.9,11.2,30.08,South,180,2.0,2.0,63,0.00,CLR,,0.00,WeatherDisplay:10.37,2013-01-25 23:03:00,
2013-01-25 18:08:00,21.9,11.6,30.08,SW,225,1.1,1.1,64,0.00,CLR,,0.00,WeatherDisplay:10.37,2013-01-25 23:08:00,
2013-01-25 18:13:00,21.7,11.8,30.08,WSW,248,1.4,1.4,65,0.00,CLR,,0.00,WeatherDisplay:10.37,2013-01-25 23:13:00,
2013-01-25 18:18:00,21.7,11.8,30.08,SW,225,1.1,1.1,65,0.00,CLR,,0.00,WeatherDisplay:10.37,2013-01-25 23:18:00,
2013-01-25 18:23:00,21.6,11.6,30.07,SE,135,0.0,0.0,65,0.00,CLR,,0.00,WeatherDisplay:10.37,2013-01-25 23:23:00,
2013-01-25 18:28:00,21.6,11.6,30.07,SSW,202,1.8,1.8,65,0.00,CLR,,0.00,WeatherDisplay:10.37,2013-01-25 23:28:00,
2013-01-25 18:33:00,21.6,11.6,30.07,WSW,248,1.1,1.1,65,0.00,CLR,,0.00,WeatherDisplay:10.37,2013-01-25 23:33:00,
2013-01-25 18:38:00,21.4,11.8,30.06,SW,225,1.4,1.4,66,0.00,CLR,,0.00,WeatherDisplay:10.37,2013-01-25 23:38:00,
2013-01-25 18:43:00,21.4,12.1,30.06,SW,225,2.3,2.3,67,0.00,CLR,,0.00,WeatherDisplay:10.37,2013-01-25 23:43:00,
2013-01-25 18:48:00,21.6,11.9,30.06,West,270,1.1,1.1,66,0.00,CLR,,0.00,WeatherDisplay:10.37,2013-01-25 23:48:00,
2013-01-25 18:53:00,21.6,12.3,30.06,SSW,202,1.1,1.1,67,0.00,CLR,,0.00,WeatherDisplay:10.37,2013-01-25 23:53:00,
2013-01-25 18:58:00,21.6,12.3,30.06,WSW,248,1.1,1.1,67,0.00,CLR,,0.00,WeatherDisplay:10.37,2013-01-25 23:58:00,
2013-01-25 19:03:00,21.6,12.3,30.06,SW,225,0.0,0.0,67,0.00,CLR,,0.00,WeatherDisplay:10.37,2013-01-26 00:03:00,
2013-01-25 19:08:00,21.4,13.8,30.07,NNW,338,0.2,0.2,72,0.00,CLR,,0.00,WeatherDisplay:10.37,2013-01-26 00:08:00,
2013-01-25 19:13:00,21.2,12.9,30.07,SSW,202,1.1,1.1,70,0.00,CLR,,0.00,WeatherDisplay:10.37,2013-01-26 00:13:00,
2013-01-25 19:18:00,21.4,12.8,30.07,WSW,248,1.1,1.1,69,0.00,CLR,,0.00,WeatherDisplay:10.37,2013-01-26 00:18:00,
2013-01-25 19:23:00,21.2,12.6,30.06,SW,225,1.1,1.1,69,0.00,CLR,,0.00,WeatherDisplay:10.37,2013-01-26 00:23:00,
2013-01-25 19:28:00,21.2,12.6,30.06,South,180,1.1,1.1,69,0.00,CLR,,0.00,WeatherDisplay:10.37,2013-01-26 00:28:00,
2013-01-25 19:33:00,21.2,12.9,30.05,SSW,202,0.0,0.0,70,0.00,CLR,,0.00,WeatherDisplay:10.37,2013-01-26 00:33:00,
2013-01-25 19:38:00,21.2,12.9,30.06,SW,225,0.7,0.7,70,0.00,CLR,,0.00,WeatherDisplay:10.37,2013-01-26 00:38:00,
2013-01-25 19:43:00,21.2,12.9,30.06,WSW,248,0.2,0.2,70,0.00,CLR,,0.00,WeatherDisplay:10.37,2013-01-26 00:43:00,
2013-01-25 19:48:00,21.2,13.3,30.06,West,270,1.1,1.1,71,0.00,CLR,,0.00,WeatherDisplay:10.37,2013-01-26 00:48:00,
2013-01-25 19:53:00,21.2,13.3,30.05,SW,225,1.1,1.1,71,0.00,CLR,,0.00,WeatherDisplay:10.37,2013-01-26 00:53:00,
2013-01-25 19:58:00,21.2,13.3,30.05,SW,225,0.0,0.0,71,0.00,CLR,,0.00,WeatherDisplay:10.37,2013-01-26 00:58:00,
2013-01-25 20:03:00,21.2,13.3,30.05,SW,225,1.1,1.1,71,0.00,CLR,,0.00,WeatherDisplay:10.37,2013-01-26 01:03:00,
2013-01-25 20:08:00,21.2,13.6,30.05,SW,225,0.2,0.2,72,0.00,CLR,,0.00,WeatherDisplay:10.37,2013-01-26 01:08:00,
2013-01-25 20:13:00,21.2,13.6,30.05,WNW,292,0.5,0.5,72,0.00,CLR,,0.00,WeatherDisplay:10.37,2013-01-26 01:13:00,
2013-01-25 20:18:00,21.2,13.6,30.05,SW,225,0.2,0.2,72,0.00,CLR,,0.00,WeatherDisplay:10.37,2013-01-26 01:18:00,
2013-01-25 20:23:00,21.2,13.6,30.05,SW,225,2.3,2.3,72,0.00,CLR,,0.00,WeatherDisplay:10.37,2013-01-26 01:23:00,
2013-01-25 20:28:00,21.2,14.2,30.05,WSW,248,2.3,2.3,74,0.00,CLR,,0.00,WeatherDisplay:10.37,2013-01-26 01:28:00,
2013-01-25 20:33:00,21.0,14.0,30.05,West,270,1.1,1.1,74,0.00,CLR,,0.00,WeatherDisplay:10.37,2013-01-26 01:33:00,
2013-01-25 20:38:00,21.0,14.0,30.05,WSW,248,2.3,2.3,74,0.00,CLR,,0.00,WeatherDisplay:10.37,2013-01-26 01:38:00,
2013-01-25 20:43:00,20.8,13.9,30.05,SW,225,1.1,1.1,74,0.00,CLR,,0.00,WeatherDisplay:10.37,2013-01-26 01:43:00,
2013-01-25 20:48:00,20.8,13.9,30.04,WSW,248,1.1,1.1,74,0.00,CLR,,0.00,WeatherDisplay:10.37,2013-01-26 01:48:00,
2013-01-25 20:53:00,20.8,13.9,30.04,SSE,158,1.1,1.1,74,0.00,CLR,,0.00,WeatherDisplay:10.37,2013-01-26 01:53:00,
2013-01-25 20:58:00,20.8,13.9,30.03,South,180,1.4,1.4,74,0.00,CLR,,0.00,WeatherDisplay:10.37,2013-01-26 01:58:00,
2013-01-25 21:03:00,20.7,13.4,30.03,SW,225,2.3,2.3,73,0.00,CLR,,0.00,WeatherDisplay:10.37,2013-01-26 02:03:00,
2013-01-25 21:08:00,20.5,13.5,30.03,West,270,1.8,1.8,74,0.00,CLR,,0.00,WeatherDisplay:10.37,2013-01-26 02:08:00,
2013-01-25 21:13:00,20.5,13.5,30.03,West,270,1.1,1.1,74,0.00,CLR,,0.00,WeatherDisplay:10.37,2013-01-26 02:13:00,
2013-01-25 21:18:00,20.3,13.3,30.03,WSW,248,1.1,1.1,74,0.00,CLR,,0.00,WeatherDisplay:10.37,2013-01-26 02:18:00,
2013-01-25 21:23:00,20.1,13.2,30.03,WSW,248,1.6,1.6,74,0.00,CLR,,0.00,WeatherDisplay:10.37,2013-01-26 02:23:00,
2013-01-25 21:28:00,19.9,13.0,30.03,SW,225,0.0,0.7,74,0.00,CLR,,0.00,WeatherDisplay:10.37,2013-01-26 02:28:00,
2013-01-25 21:33:00,19.8,12.5,30.03,SSE,158,1.1,1.1,73,0.00,CLR,,0.00,WeatherDisplay:10.37,2013-01-26 02:33:00,
2013-01-25 21:38:00,19.4,12.5,30.03,WSW,248,1.1,1.1,74,0.00,CLR,,0.00,WeatherDisplay:10.37,2013-01-26 02:38:00,
2013-01-25 21:43:00,19.2,12.3,30.03,SW,225,1.1,1.1,74,0.00,CLR,,0.00,WeatherDisplay:10.37,2013-01-26 02:43:00,
2013-01-25 21:48:00,19.0,12.1,30.02,SW,225,1.1,1.1,74,0.00,CLR,,0.00,WeatherDisplay:10.37,2013-01-26 02:48:00,
2013-01-25 21:53:00,18.9,11.6,30.02,WSW,248,0.0,0.0,73,0.00,CLR,,0.00,WeatherDisplay:10.37,2013-01-26 02:53:00,
2013-01-25 21:58:00,18.7,11.5,30.02,SW,225,0.0,0.0,73,0.00,CLR,,0.00,WeatherDisplay:10.37,2013-01-26 02:58:00,
2013-01-25 22:03:00,18.3,10.8,30.02,South,180,0.0,0.0,72,0.00,CLR,,0.00,WeatherDisplay:10.37,2013-01-26 03:03:00,
2013-01-25 22:08:00,18.3,11.1,30.02,SW,225,0.0,0.0,73,0.00,CLR,,0.00,WeatherDisplay:10.37,2013-01-26 03:08:00,
2013-01-25 22:13:00,17.8,10.3,30.02,South,180,0.0,0.0,72,0.00,CLR,,0.00,WeatherDisplay:10.37,2013-01-26 03:13:00,
2013-01-25 22:18:00,17.6,10.4,30.01,South,180,0.0,0.0,73,0.00,CLR,,0.00,WeatherDisplay:10.37,2013-01-26 03:18:00,
2013-01-25 22:23:00,17.2,10.1,30.02,South,180,0.0,0.0,73,0.00,CLR,,0.00,WeatherDisplay:10.37,2013-01-26 03:23:00,
2013-01-25 22:28:00,17.1,9.9,30.01,South,180,0.0,0.0,73,0.00,CLR,,0.00,WeatherDisplay:10.37,2013-01-26 03:28:00,
2013-01-25 22:33:00,16.9,9.7,30.01,South,180,0.0,0.0,73,0.00,CLR,,0.00,WeatherDisplay:10.37,2013-01-26 03:33:00,
2013-01-25 22:38:00,16.5,9.4,30.01,South,180,0.0,0.0,73,0.00,CLR,,0.00,WeatherDisplay:10.37,2013-01-26 03:38:00,
2013-01-25 22:43:00,16.2,9.3,30.01,South,180,0.0,0.0,74,0.00,CLR,,0.00,WeatherDisplay:10.37,2013-01-26 03:43:00,
2013-01-25 22:48:00,16.0,9.2,30.01,South,180,0.0,0.0,74,0.00,CLR,,0.00,WeatherDisplay:10.37,2013-01-26 03:48:00,
2013-01-25 22:53:00,15.8,9.0,30.01,South,180,0.0,0.0,74,0.00,CLR,,0.00,WeatherDisplay:10.37,2013-01-26 03:53:00,
2013-01-25 22:58:00,15.6,8.8,30.01,South,180,0.0,0.0,74,0.00,CLR,,0.00,WeatherDisplay:10.37,2013-01-26 03:58:00,
2013-01-25 23:03:00,15.6,8.8,30.01,South,180,0.0,0.0,74,0.00,CLR,,0.00,WeatherDisplay:10.37,2013-01-26 04:03:00,
2013-01-25 23:08:00,15.4,8.9,30.01,South,180,0.0,0.0,75,0.00,CLR,,0.00,WeatherDisplay:10.37,2013-01-26 04:08:00,
2013-01-25 23:13:00,15.4,8.9,30.01,South,180,0.0,0.0,75,0.00,CLR,,0.00,WeatherDisplay:10.37,2013-01-26 04:13:00,
2013-01-25 23:18:00,15.4,8.9,30.01,South,180,0.0,0.0,75,0.00,CLR,,0.00,WeatherDisplay:10.37,2013-01-26 04:18:00,
2013-01-25 23:23:00,15.1,8.6,30.01,South,180,0.0,0.0,75,0.00,CLR,,0.00,WeatherDisplay:10.37,2013-01-26 04:23:00,
2013-01-25 23:28:00,14.9,8.4,30.01,South,180,0.0,0.0,75,0.00,CLR,,0.00,WeatherDisplay:10.37,2013-01-26 04:28:00,
2013-01-25 23:33:00,14.7,8.2,30.01,South,180,0.0,0.0,75,0.00,CLR,,0.00,WeatherDisplay:10.37,2013-01-26 04:33:00,
2013-01-25 23:38:00,14.5,8.1,30.01,South,180,0.0,0.0,75,0.00,CLR,,0.00,WeatherDisplay:10.37,2013-01-26 04:38:00,
2013-01-25 23:43:00,14.4,8.2,30.01,South,180,0.0,0.0,76,0.00,CLR,,0.00,WeatherDisplay:10.37,2013-01-26 04:43:00,
2013-01-25 23:48:00,14.2,8.0,30.01,South,180,0.0,0.0,76,0.00,CLR,,0.00,WeatherDisplay:10.37,2013-01-26 04:48:00,
2013-01-25 23:53:00,14.0,7.8,30.00,South,180,0.0,0.0,76,0.00,CLR,,0.00,WeatherDisplay:10.37,2013-01-26 04:53:00,
2013-01-25 23:58:00,14.2,8.0,30.00,South,180,0.0,0.0,76,0.00,CLR,,0.00,WeatherDisplay:10.37,2013-01-26 04:58:00,